[[{"header":{"parameterUnit":"m.s-1","parameterCategory":1,"la1":30.2991,"la2":30.254,"lo1":-89.0895,"lo2":-89.0444,"dy":0.0017,"dx":0.0017,"nx":28,"ny":28,"refTime":"2023-09-26T09:00:00:Z","depth":0,"parameterNumber":2,"parameterNumberName":"U-component_of_WINDS"},"data":[0,0,0,0,0,0,0,0,0,0,0,0,0,0,0,0,0,0,0,0,0,0,0,0,0,0,0,0,0,0,0,0,0,0,0,0,0,0,0,0,0,0,0,0,0,0,0,0,0,0,0,0,0,0,0,0,0,0,-5.1755,-5.1756,0,-5.1868,-5.1869,-5.187,-5.1796,-5.1793,-5.1789,-5.1786,-5.1899,-5.1905,-5.1911,0,0,0,0,0,0,0,0,0,0,0,0,0,-5.147,-5.1476,-5.1755,-5.1756,-5.1757,-5.1868,-5.1869,-5.1871,-5.1797,-5.1793,-5.1788,-5.1784,-5.1897,-5.1904,-5.1912,0,0,0,0,0,0,0,0,0,0,0,0,0,-5.1589,-5.1477,-5.1754,-5.1734,-5.1733,-5.1867,-5.1869,-5.1871,-5.1798,-5.1792,-5.1787,-5.1783,-5.1894,-5.1903,-5.1913,-5.2072,0,0,-5.1941,-5.1945,0,0,0,0,0,0,0,0,-5.1583,-5.16,-5.1735,-5.1735,-5.1735,-5.1813,-5.181,-5.1939,-5.1799,-5.1773,-5.1786,-5.178,-5.1874,-5.1885,-5.1917,-5.2078,-5.2082,-5.1942,-5.1947,-5.1951,-5.1954,0,0,0,0,0,0,0,-5.1575,-5.1595,-5.1799,-5.1737,-5.1737,-5.1718,-5.1729,-5.1834,-5.1851,-5.1775,-5.177,-5.1784,-5.1873,-5.1908,-5.1919,-5.2084,-5.1941,-5.195,-5.1955,-5.1959,-5.2378,-5.2384,0,0,0,0,0,0,-5.1568,-5.1588,-5.1796,-5.1803,-5.1645,-5.1727,-5.174,-5.1793,-5.1849,-5.1853,-5.1789,-5.178,-5.1895,-5.1908,-5.1923,-5.2111,-5.1951,-5.196,-5.1965,-5.2373,-5.238,-5.2386,0,0,0,0,0,0,-5.1563,-5.1588,-5.1791,-5.1694,-5.1719,-5.1737,-5.1798,-5.1798,-5.1833,-5.186,-5.1862,-5.1822,-5.1892,-5.191,-5.2035,-5.2114,-5.1964,-5.1973,-5.2366,-5.2375,-5.2383,-5.249,0,0,0,0,0,0,-5.1555,-5.1586,-5.1648,-5.1696,-5.1724,-5.1903,-5.1803,-5.1804,-5.185,-5.184,-5.1892,-5.1895,-5.1889,-5.2022,-5.2045,-5.2124,-5.198,-5.2359,-5.237,-5.238,-5.2479,-5.2501,-5.2519,0,0,0,0,0,-5.1545,-5.1674,-5.1651,-5.1677,-5.1802,-5.1908,-5.1923,-5.1914,-5.1856,-5.1918,-5.1935,-5.1894,-5.2103,-5.2035,-5.206,-5.2144,-5.2354,-5.2367,-5.2379,-5.247,-5.2497,-5.2519,0,0,0,0,0,0,-5.1633,-5.1679,-5.1655,-5.1804,-5.1853,-5.1895,-5.1972,-5.1943,-5.2008,-5.1996,-5.1981,-5.1994,-5.2124,-5.2147,-5.2071,-5.23,-5.2219,-5.2237,-5.228,-5.2305,-5.2324,-5.2314,-5.1988,0,0,0,0,0,-5.167,-5.1753,-5.1789,-5.1916,-5.1942,-5.1953,-5.1999,-5.1988,-5.2037,-5.2057,-5.2083,-5.2132,-5.2208,-5.2258,-5.233,-5.2484,-5.2492,-5.2553,-5.2573,-5.2589,-5.2604,-5.2684,-5.271,-5.2427,-5.2427,-5.2426,0,0,-5.1747,-5.1782,-5.1836,-5.1935,-5.1971,-5.2056,-5.1971,-5.2065,-5.2127,-5.2071,-5.219,-5.2212,-5.2264,-5.2404,-5.2467,-5.2427,-5.2685,-5.2605,-5.2618,-5.2624,-5.2699,-5.2726,-5.275,-5.2435,-5.2434,-5.2432,0,0,-5.1928,-5.1966,-5.2074,-5.2113,-5.2169,-5.2175,-5.2202,-5.2249,-5.2261,-5.2381,-5.234,-5.2414,-5.2546,-5.2584,-5.2621,-5.2818,-5.2782,-5.2842,-5.2945,-5.3023,-5.3045,-5.3065,-5.3132,-5.3156,-5.2858,-5.2858,-5.2858,0,-5.2016,-5.2143,-5.2133,-5.223,-5.2273,-5.2229,-5.2337,-5.2374,-5.2451,-5.2482,-5.2437,-5.26,-5.2633,-5.2779,-5.2827,-5.286,-5.2887,-5.2834,-5.3043,-5.3063,-5.3081,-5.3144,-5.317,-5.2865,-5.2864,-5.2863,-5.2863,0,-5.2246,-5.2335,-5.2416,-5.2491,-5.2544,-5.2647,-5.2651,-5.2706,-5.2691,-5.2701,-5.2823,-5.2861,-5.2938,-5.2973,-5.2959,-5.3117,-5.309,-5.3045,-5.2963,-5.3115,-5.3174,-5.3198,-5.2874,-5.2872,-5.287,-5.2868,0,0,-5.2484,-5.2553,-5.2583,-5.2615,-5.2675,-5.2742,-5.2842,-5.2918,-5.2964,-5.3019,-5.31,-5.3214,-5.3171,-5.3214,-5.3204,-5.3273,-5.3422,-5.3218,-5.3219,-5.3252,-5.3594,-5.3625,-5.3654,-5.34,-5.3405,-5.3408,-5.3589,0,-5.2666,-5.284,-5.2834,-5.2996,-5.3076,-5.3035,-5.3121,-5.3166,-5.3179,-5.3248,-5.3262,-5.3341,-5.3282,-5.3306,-5.3373,-5.339,-5.349,-5.3377,-5.3472,-5.3475,-5.3456,-5.3685,-5.3718,-5.3886,-5.3612,-5.3616,-5.3619,0,-5.2901,-5.2964,-5.3134,-5.3179,-5.3212,-5.329,-5.3359,-5.3427,-5.3476,-5.348,-5.3528,-5.3507,-5.3606,-5.3524,-5.3658,-5.3582,-5.3621,-5.3635,-5.3641,-5.3646,-5.3553,-5.3692,-5.394,-5.3964,-5.3656,-5.3653,-5.365,0,-5.3053,-5.318,-5.3297,-5.3327,-5.3384,-5.3439,-5.3466,-5.351,-5.3556,-5.3617,-5.3645,-5.3717,-5.3755,-5.381,-5.3808,-5.3749,-5.3943,-5.3862,-5.3947,-5.3947,-5.3986,-5.3983,-5.4239,-5.4019,-5.4018,-5.4018,-5.4017,0,-5.3254,-5.3359,-5.3366,-5.3437,-5.3552,-5.3545,-5.3659,-5.3679,-5.3719,-5.3793,-5.3763,-5.3832,-5.3827,-5.3897,-5.3897,-5.4006,-5.4025,-5.4029,-5.4027,-5.403,-5.4029,-5.4052,-5.4038,-5.4024,-5.4023,-5.4022,-5.4021,0,-5.3441,-5.3451,-5.3575,-5.362,-5.3633,-5.3716,-5.3752,-5.382,-5.3831,-5.3924,-5.3946,-5.3963,-5.4043,-5.4048,-5.4141,-5.4141,-5.4272,-5.426,-5.4256,-5.4252,-5.4335,-5.4325,-5.4612,-5.4648,-5.4408,-5.441,-5.4412,0,-5.3567,-5.3646,-5.3699,-5.3747,-5.3776,-5.3853,-5.39,-5.3896,-5.3945,-5.4008,-5.4067,-5.4145,-5.4206,-5.4337,-5.4357,-5.4427,-5.4413,-5.4509,-5.4423,-5.4423,-5.4409,-5.4403,-5.4409,-5.4524,-5.4527,-5.4529,-5.4531,0,-5.3788,-5.3789,-5.3858,-5.3928,-5.3985,-5.404,-5.4092,-5.4132,-5.4134,-5.4191,-5.4273,-5.4321,-5.4417,-5.4493,-5.4562,-5.4587,-5.4559,-5.4558,-5.4581,-5.4582,-5.4574,-5.4575,-5.4296,-5.455,-5.4548,-5.4547,-5.4546,-5.4545,-5.3945,-5.4013,-5.406,-5.4137,-5.4176,-5.4224,-5.4289,-5.4308,-5.4377,-5.4454,-5.4448,-5.4539,-5.4585,-5.4674,-5.4706,-5.4775,-5.4742,-5.4776,-5.4784,-5.4791,-5.4798,-5.4568,-5.4788,-5.4788,-5.4787,-5.4787,-5.4786,0,-5.4161,-5.4189,-5.4261,-5.4333,-5.4394,-5.4364,-5.4419,-5.4471,-5.4551,-5.4598,-5.4659,-5.4753,-5.4827,-5.4853,-5.4925,-5.4976,-5.4964,-5.4994,-5.4988,-5.4994,-5.4825,-5.4797,-5.5002,-5.5002,-5.5002,-5.5002,-5.5002,-5.5002,-5.428,-5.4391,-5.4397,-5.4527,-5.4555,-5.4643,-5.4677,-5.4721,-5.4757,-5.4863,-5.4925,-5.4942,-5.498,-5.5054,-5.512,-5.5126,-5.5152,-5.5187,-5.5187,-5.5028,-5.5006,-5.4985,-5.4958,-5.5194,-5.5194,-5.5349,-5.535,-5.5351]},{"header":{"parameterUnit":"m.s-1","parameterCategory":1,"la1":30.2991,"la2":30.254,"lo1":-89.0895,"lo2":-89.0444,"dy":0.0017,"dx":0.0017,"nx":28,"ny":28,"refTime":"2023-09-26T09:00:00:Z","depth":0,"parameterNumber":3,"parameterNumberName":"V-component_of_WINDS"},"data":[0,0,0,0,0,0,0,0,0,0,0,0,0,0,0,0,0,0,0,0,0,0,0,0,0,0,0,0,0,0,0,0,0,0,0,0,0,0,0,0,0,0,0,0,0,0,0,0,0,0,0,0,0,0,0,0,0,0,0.1217,0.1217,0,0.1307,0.1308,0.1309,0.1317,0.1316,0.1315,0.1314,0.1407,0.141,0.1414,0,0,0,0,0,0,0,0,0,0,0,0,0,0.1051,0.1054,0.1216,0.1218,0.1219,0.1307,0.1308,0.1309,0.1317,0.1316,0.1315,0.1314,0.1406,0.141,0.1414,0,0,0,0,0,0,0,0,0,0,0,0,0,0.1131,0.1055,0.1216,0.1233,0.1236,0.1307,0.1308,0.131,0.1317,0.1316,0.1314,0.1313,0.1405,0.1409,0.1414,0.1475,0,0,0.143,0.1432,0,0,0,0,0,0,0,0,0.1126,0.1137,0.123,0.1232,0.1235,0.1299,0.1284,0.1365,0.1318,0.1286,0.1314,0.1312,0.1372,0.138,0.14,0.1479,0.1483,0.143,0.1433,0.1436,0.1437,0,0,0,0,0,0,0,0.1121,0.1133,0.1252,0.1231,0.1234,0.1237,0.1246,0.1299,0.1336,0.1289,0.129,0.13,0.1373,0.1395,0.1402,0.1485,0.143,0.1435,0.1438,0.144,0.162,0.1621,0,0,0,0,0,0,0.1112,0.1128,0.1249,0.1255,0.1176,0.1241,0.1252,0.128,0.1336,0.1343,0.1302,0.13,0.1387,0.1396,0.1406,0.1482,0.1436,0.144,0.1443,0.1618,0.162,0.1622,0,0,0,0,0,0,0.1108,0.1122,0.1246,0.1192,0.1208,0.1245,0.1277,0.1283,0.1304,0.1345,0.1352,0.1317,0.1387,0.1399,0.1458,0.1485,0.1443,0.1447,0.1616,0.1619,0.1621,0.1633,0,0,0,0,0,0,0.1103,0.1121,0.1144,0.1192,0.1211,0.1296,0.1279,0.1285,0.1313,0.1312,0.1361,0.1368,0.1386,0.145,0.1463,0.1491,0.1451,0.1614,0.1617,0.162,0.163,0.1635,0.164,0,0,0,0,0,0.1097,0.1143,0.1145,0.116,0.124,0.1298,0.1308,0.1328,0.1315,0.1339,0.1366,0.1367,0.148,0.1456,0.1471,0.1501,0.1612,0.1616,0.162,0.1628,0.1634,0.164,0,0,0,0,0,0,0.1097,0.115,0.1153,0.1215,0.1252,0.1299,0.133,0.1334,0.1375,0.1373,0.1396,0.1407,0.1466,0.1489,0.1462,0.1563,0.1545,0.1552,0.1546,0.1552,0.1557,0.1551,0.1455,0,0,0,0,0,0.1104,0.1146,0.119,0.1242,0.126,0.1292,0.1317,0.133,0.1369,0.1384,0.1415,0.1453,0.1497,0.1526,0.1569,0.1633,0.1645,0.1661,0.1666,0.167,0.1676,0.1713,0.1721,0.1635,0.1635,0.1635,0,0,0.1119,0.1154,0.1179,0.1243,0.1272,0.1316,0.1305,0.1351,0.1384,0.1391,0.145,0.1474,0.1518,0.1581,0.161,0.1602,0.1702,0.1675,0.1677,0.1681,0.1718,0.1726,0.1734,0.1638,0.1637,0.1637,0,0,0.117,0.12,0.1246,0.1277,0.1323,0.1343,0.1355,0.1401,0.1418,0.1477,0.1484,0.1523,0.1599,0.163,0.1656,0.172,0.1723,0.1733,0.1759,0.1796,0.1803,0.1809,0.1833,0.1841,0.1739,0.1739,0.1739,0,0.1183,0.125,0.127,0.1317,0.1345,0.1354,0.1402,0.1431,0.1488,0.1508,0.1498,0.1594,0.1624,0.1695,0.1711,0.1731,0.1745,0.1728,0.18,0.1806,0.1812,0.1836,0.1845,0.174,0.174,0.174,0.174,0,0.1265,0.1311,0.1343,0.1399,0.1431,0.1478,0.1506,0.1536,0.1545,0.1568,0.1629,0.1665,0.1716,0.1734,0.1743,0.1807,0.1801,0.1795,0.1777,0.1821,0.1844,0.1853,0.1742,0.1741,0.1741,0.1741,0,0,0.1317,0.1384,0.1396,0.1422,0.1474,0.151,0.1558,0.1608,0.1634,0.1674,0.1715,0.178,0.1775,0.1805,0.1818,0.185,0.19,0.1841,0.1842,0.1851,0.1974,0.1979,0.1989,0.1902,0.1904,0.1905,0.1971,0,0.1375,0.1461,0.1481,0.1555,0.1599,0.1608,0.165,0.1687,0.1709,0.175,0.1774,0.182,0.181,0.1828,0.186,0.1887,0.1925,0.1883,0.1942,0.1944,0.1932,0.2,0.2005,0.2065,0.198,0.1981,0.1982,0,0.1453,0.1495,0.1574,0.1621,0.164,0.1678,0.1726,0.1764,0.1807,0.1821,0.1854,0.1865,0.1916,0.1895,0.1967,0.1938,0.1963,0.198,0.1983,0.199,0.1966,0.201,0.2085,0.2094,0.1996,0.1995,0.1994,0,0.1485,0.1561,0.1619,0.1641,0.1697,0.1723,0.1748,0.1789,0.1818,0.1861,0.188,0.1928,0.1954,0.1991,0.2015,0.1997,0.2085,0.2066,0.2099,0.2099,0.2118,0.2117,0.2199,0.2133,0.2132,0.2132,0.2132,0,0.1548,0.1596,0.1634,0.167,0.1724,0.1747,0.1801,0.1825,0.1862,0.1903,0.1913,0.1952,0.198,0.2022,0.2041,0.2098,0.211,0.2123,0.2128,0.2123,0.2121,0.214,0.2137,0.2135,0.2134,0.2134,0.2133,0,0.1594,0.1621,0.1684,0.1733,0.1746,0.1784,0.1826,0.1861,0.1884,0.1936,0.1949,0.1985,0.2036,0.2062,0.2125,0.2138,0.2203,0.2204,0.2189,0.2191,0.2223,0.222,0.2321,0.2336,0.2259,0.226,0.226,0,0.1632,0.167,0.1723,0.1751,0.1776,0.1821,0.1852,0.1876,0.1908,0.1959,0.1989,0.204,0.2082,0.2162,0.2194,0.2243,0.2247,0.2279,0.2254,0.2248,0.2249,0.2247,0.2251,0.2283,0.2284,0.2284,0.2285,0,0.1699,0.1711,0.1754,0.1803,0.1839,0.1879,0.1918,0.194,0.1971,0.2006,0.2058,0.2091,0.2156,0.2207,0.2258,0.2284,0.229,0.2292,0.2303,0.2299,0.2289,0.2296,0.2202,0.229,0.229,0.2289,0.2289,0.2289,0.1743,0.1777,0.182,0.1869,0.1901,0.1938,0.1973,0.2001,0.2045,0.21,0.2111,0.2167,0.2209,0.2279,0.2306,0.235,0.2344,0.2359,0.2363,0.2366,0.2369,0.2281,0.236,0.236,0.2359,0.2359,0.2359,0,0.1811,0.184,0.1884,0.1939,0.1977,0.1979,0.2023,0.2055,0.2104,0.2143,0.2185,0.2245,0.2295,0.2331,0.2383,0.2411,0.2415,0.2424,0.2422,0.2429,0.2371,0.2357,0.242,0.242,0.242,0.242,0.2419,0.2419,0.1851,0.191,0.1927,0.2002,0.203,0.2085,0.211,0.2144,0.2176,0.2243,0.2284,0.2308,0.2346,0.24,0.2447,0.2456,0.2475,0.2483,0.2493,0.2439,0.2432,0.2426,0.2414,0.2487,0.2487,0.2548,0.2548,0.2549]}]]